South Burlington, VT

12:10 PM EDT on September 25, 2016 (GMT -0400)
Burlington International

Weather History for KBTV - January, 2013

Change the Weather History Date:

Friday, January 11, 2013

  Actual Average Record
Temperature  
Mean Temperature 29 °F 19 °F  
Max Temperature 38 °F 27 °F 56 °F (1980)
Min Temperature 19 °F 10 °F -27 °F (1968)
Degree Days  
Heating Degree Days 36 46  
Month to date heating degree days 481 502  
Since 1 July heating degree days 2886 3261  
Cooling Degree Days 0 0  
Month to date cooling degree days 0 0  
Year to date cooling degree days 0 0  
Moisture  
Dew Point 24 °F    
Average Humidity 72    
Maximum Humidity 92    
Minimum Humidity 52    
Precipitation  
Precipitation 0.05 in 0.07 in 1.27 in (1924)
Month to date precipitation 0.17 0.73  
Year to date precipitation 0.17 0.73  
Snow  
Snow T in 0.70 in 6.50 in (1922)
Month to date snowfall 5.5 7.4  
Since 1 July snowfall 40.0 30.7  
Snow Depth 8.00 in    
Sea Level Pressure  
Sea Level Pressure 30.28 in    
Wind  
Wind Speed 8 mph (South)    
Max Wind Speed 20 mph    
Max Gust Speed 29 mph    
Visibility 10 miles    
Events Rain    
T = Trace of Precipitation, MM = Missing Value Source: NWS Daily Summary

Daily Weather History Graph

Daily Weather History Graph

Search for Another Location

Airport or City:

Trip Planner

Search our weather history database for the weather conditions in past years. The results will help you decide how hot, cold, wet, or windy it might be!

Date:

Astronomy

Jan. 11, 2013 Rise Set
Actual Time 7:27 AM EST 4:34 PM EST
Civil Twilight 6:54 AM EST 5:07 PM EST
Nautical Twilight 6:18 AM EST 5:43 PM EST
Astronomical Twilight 5:43 AM EST 6:18 PM EST
Moon 6:56 AM EST (1/11) 4:51 PM EST (1/11)
Length of Visible Light 10h 12m
Length of Day
9h 07m
Waning Crescent, 0% of the Moon is Illuminated
Jan 11
Waning Crescent
Jan 11
New
Jan 18
First Quarter
Jan 26
Full
Feb 3
Last Quarter

Hourly Weather History & Observations

Time (EST) Temp. Windchill Dew Point Humidity Pressure Visibility Wind Dir Wind Speed Gust Speed Precip Events Conditions
12:54 AM 25.0 °F 20.7 °F 21.0 °F 85% 30.54 in 10.0 mi SSE 3.5 mph - N/A   Clear
1:54 AM 24.1 °F - 19.9 °F 84% 30.53 in 10.0 mi Calm Calm - N/A   Clear
2:54 AM 24.1 °F - 19.9 °F 84% 30.50 in 10.0 mi Calm Calm - N/A   Clear
3:54 AM 24.1 °F - 19.9 °F 84% 30.48 in 10.0 mi Calm Calm - N/A   Clear
4:54 AM 21.9 °F - 18.0 °F 85% 30.45 in 10.0 mi Calm Calm - N/A   Clear
5:54 AM 21.0 °F 16.2 °F 17.1 °F 85% 30.46 in 10.0 mi South 3.5 mph - N/A   Clear
6:54 AM 21.0 °F - 17.1 °F 85% 30.45 in 10.0 mi Calm Calm - N/A   Clear
7:54 AM 23.0 °F 18.4 °F 19.4 °F 86% 30.42 in 10.0 mi South 3.5 mph - N/A   Scattered Clouds
8:54 AM 26.1 °F - 21.0 °F 81% 30.40 in 10.0 mi Calm Calm - N/A   Overcast
9:54 AM 32.0 °F 24.2 °F 21.0 °F 64% 30.37 in 10.0 mi SSE 9.2 mph - N/A   Mostly Cloudy
10:54 AM 34.0 °F 25.5 °F 21.0 °F 59% 30.32 in 10.0 mi South 11.5 mph - N/A   Overcast
11:54 AM 36.0 °F 28.0 °F 21.0 °F 55% 30.29 in 10.0 mi South 11.5 mph 17.3 mph N/A   Mostly Cloudy
12:54 PM 36.0 °F 27.5 °F 24.1 °F 62% 30.27 in 10.0 mi South 12.7 mph 19.6 mph 0.01 in Rain Light Rain
1:10 PM 35.6 °F 27.1 °F 23.0 °F 60% 30.24 in 10.0 mi South 12.7 mph - 0.00 in   Light Ice Pellets
1:41 PM 37.4 °F 27.8 °F 21.2 °F 52% 30.22 in 10.0 mi South 17.3 mph - 0.00 in   Overcast
1:54 PM 37.0 °F 29.8 °F 21.9 °F 54% 30.23 in 10.0 mi South 10.4 mph 23.0 mph 0.00 in   Overcast
2:54 PM 37.4 °F 29.8 °F 21.2 °F 52% 30.18 in 10.0 mi South 11.5 mph - N/A   Overcast
3:54 PM 37.9 °F 28.9 °F 21.0 °F 51% 30.17 in 10.0 mi South 16.1 mph 27.6 mph N/A   Overcast
4:54 PM 37.0 °F 29.3 °F 24.1 °F 59% 30.16 in 10.0 mi South 11.5 mph 23.0 mph 0.00 in Rain Light Rain
5:54 PM 36.0 °F 26.7 °F 26.1 °F 67% 30.13 in 10.0 mi South 15.0 mph - 0.00 in Rain Light Rain
6:54 PM 36.0 °F 28.5 °F 28.0 °F 73% 30.12 in 10.0 mi South 10.4 mph - 0.00 in   Overcast
7:54 PM 37.0 °F 28.9 °F 30.9 °F 79% 30.10 in 10.0 mi SSE 12.7 mph - 0.00 in Rain Light Rain
8:54 PM 37.0 °F 28.5 °F 32.0 °F 82% 30.10 in 10.0 mi South 13.8 mph - 0.02 in Rain Light Rain
9:54 PM 36.0 °F 26.3 °F 33.1 °F 89% 30.10 in 8.0 mi South 16.1 mph - 0.01 in Rain Light Rain
10:54 PM 37.0 °F 30.4 °F 33.1 °F 86% 30.08 in 10.0 mi SSE 9.2 mph 17.3 mph 0.01 in Rain Light Rain
11:52 PM 37.4 °F 29.3 °F 33.8 °F 87% 30.07 in 10.0 mi South 12.7 mph - 0.00 in   Overcast
11:54 PM 37.9 °F 30.5 °F 34.0 °F 86% 30.08 in 10.0 mi South 11.5 mph - 0.00 in   Overcast